| time (UTC) | temp F | wind direction | speed MPH | gust MPH | rain 1hr in | rain 24hr in | rain mn in | humidity % | barometer mb |
| 20260903060004 | 59 | 264 | 5.0 | 9.0 | 0.00 | 0.03 | 0.03 | 95 | 1015.8 |
| 20260903055403 | 59 | 264 | 6.0 | 9.0 | 0.00 | 0.03 | 0.03 | 95 | 1015.8 |
| 20260903054803 | 59 | 267 | 6.0 | 9.0 | 0.00 | 0.03 | 0.03 | 95 | 1015.8 |
| 20260903054203 | 59 | 265 | 7.0 | 10.0 | 0.00 | 0.03 | 0.03 | 95 | 1015.9 |
| 20260903053603 | 59 | 265 | 7.0 | 10.0 | 0.00 | 0.03 | 0.03 | 95 | 1015.9 |
| 20260903053003 | 59 | 267 | 6.0 | 9.0 | 0.00 | 0.03 | 0.03 | 95 | 1016.0 |
| 20260903052403 | 59 | 270 | 5.0 | 11.0 | 0.00 | 0.03 | 0.03 | 95 | 1016.0 |
| 20260903051803 | 59 | 268 | 5.0 | 9.0 | 0.00 | 0.03 | 0.03 | 95 | 1016.1 |
| 20260903051203 | 59 | 264 | 5.0 | 9.0 | 0.00 | 0.03 | 0.03 | 94 | 1016.1 |
| 20260903050603 | 59 | 265 | 5.0 | 9.0 | 0.00 | 0.03 | 0.03 | 94 | 1016.1 |
| 20260903050003 | 59 | 263 | 5.0 | 9.0 | 0.00 | 0.03 | 0.03 | 94 | 1016.2 |
| 20260903045403 | 59 | 259 | 5.0 | 9.0 | 0.00 | 0.03 | 0.03 | 94 | 1016.1 |
| 20260903044804 | 60 | 260 | 7.0 | 12.0 | 0.00 | 0.03 | 0.03 | 94 | 1016.1 |
| 20260903044204 | 60 | 267 | 8.0 | 12.0 | 0.00 | 0.03 | 0.03 | 94 | 1016.1 |
| 20260903043603 | 60 | 268 | 8.0 | 12.0 | 0.00 | 0.03 | 0.03 | 94 | 1016.0 |
| 20260903043003 | 60 | 269 | 8.0 | 12.0 | 0.00 | 0.03 | 0.03 | 94 | 1016.0 |
| 20260903042403 | 60 | 267 | 8.0 | 12.0 | 0.00 | 0.03 | 0.03 | 94 | 1016.0 |
| 20260903041803 | 60 | 266 | 8.0 | 12.0 | 0.00 | 0.03 | 0.03 | 94 | 1016.0 |
| 20260903041203 | 60 | 266 | 7.0 | 11.0 | 0.00 | 0.03 | 0.03 | 94 | 1015.8 |
| 20260903040603 | 60 | 266 | 7.0 | 10.0 | 0.00 | 0.03 | 0.03 | 94 | 1015.8 |
| 20260903040003 | 60 | 267 | 7.0 | 11.0 | 0.00 | 0.03 | 0.03 | 93 | 1015.7 |
| 20260903035403 | 60 | 265 | 7.0 | 11.0 | 0.00 | 0.03 | 0.03 | 93 | 1015.6 |
| 20260903034803 | 60 | 262 | 6.0 | 10.0 | 0.00 | 0.03 | 0.03 | 93 | 1015.6 |
| 20260903034203 | 60 | 264 | 6.0 | 15.0 | 0.00 | 0.03 | 0.03 | 93 | 1015.4 |
| 20260903033603 | 60 | 262 | 7.0 | 15.0 | 0.00 | 0.03 | 0.03 | 93 | 1015.5 |
| 20260903033004 | 60 | 263 | 8.0 | 12.0 | 0.00 | 0.03 | 0.03 | 93 | 1015.4 |
| 20260903032404 | 60 | 263 | 8.0 | 12.0 | 0.00 | 0.03 | 0.03 | 93 | 1015.3 |
| 20260903031804 | 60 | 263 | 8.0 | 12.0 | 0.00 | 0.03 | 0.03 | 94 | 1015.2 |
| 20260903031204 | 60 | 264 | 8.0 | 11.0 | 0.00 | 0.03 | 0.03 | 94 | 1015.1 |
| 20260903030604 | 60 | 263 | 8.0 | 11.0 | 0.00 | 0.03 | 0.03 | 93 | 1015.1 |
| 20260903030004 | 60 | 263 | 8.0 | 14.0 | 0.00 | 0.03 | 0.03 | 92 | 1015.1 |
| 20260903025403 | 60 | 265 | 9.0 | 14.0 | 0.00 | 0.03 | 0.03 | 92 | 1015.0 |
| 20260903024803 | 60 | 267 | 11.0 | 17.0 | 0.00 | 0.03 | 0.03 | 91 | 1015.0 |
| 20260903024204 | 61 | 267 | 10.0 | 17.0 | 0.00 | 0.03 | 0.03 | 91 | 1015.0 |
| 20260903023603 | 61 | 265 | 9.0 | 14.0 | 0.00 | 0.03 | 0.03 | 90 | 1015.1 |
| 20260903023003 | 61 | 263 | 9.0 | 13.0 | 0.00 | 0.03 | 0.03 | 89 | 1015.1 |
| 20260903022403 | 62 | 267 | 8.0 | 12.0 | 0.00 | 0.03 | 0.03 | 88 | 1015.2 |
| 20260903021803 | 62 | 265 | 8.0 | 12.0 | 0.00 | 0.03 | 0.03 | 87 | 1015.3 |
| 20260903021203 | 63 | 262 | 8.0 | 12.0 | 0.00 | 0.03 | 0.03 | 87 | 1015.3 |
| 20260903020603 | 63 | 263 | 7.0 | 12.0 | 0.00 | 0.03 | 0.03 | 86 | 1015.3 |
| 20260903020004 | 63 | 264 | 7.0 | 12.0 | 0.00 | 0.03 | 0.03 | 86 | 1015.4 |
| 20260903015403 | 63 | 267 | 7.0 | 12.0 | 0.00 | 0.03 | 0.03 | 85 | 1015.4 |
| 20260903014803 | 64 | 264 | 8.0 | 13.0 | 0.00 | 0.03 | 0.03 | 85 | 1015.4 |
| 20260903014203 | 64 | 263 | 8.0 | 15.0 | 0.00 | 0.03 | 0.03 | 85 | 1015.5 |
| 20260903013603 | 64 | 263 | 8.0 | 15.0 | 0.00 | 0.03 | 0.03 | 84 | 1015.5 |
| 20260903013003 | 64 | 264 | 8.0 | 13.0 | 0.00 | 0.03 | 0.03 | 84 | 1015.6 |
| 20260903012403 | 64 | 265 | 9.0 | 13.0 | 0.00 | 0.03 | 0.03 | 84 | 1015.6 |
| 20260903011803 | 65 | 266 | 9.0 | 14.0 | 0.00 | 0.03 | 0.03 | 83 | 1015.6 |
| 20260903011204 | 65 | 266 | 9.0 | 14.0 | 0.00 | 0.03 | 0.03 | 83 | 1015.5 |
| 20260903010604 | 66 | 264 | 9.0 | 16.0 | 0.00 | 0.03 | 0.03 | 82 | 1015.5 |
| 20260903010004 | 66 | 265 | 9.0 | 16.0 | 0.00 | 0.03 | 0.03 | 82 | 1015.6 |
| 20260903005404 | 66 | 266 | 9.0 | 16.0 | 0.00 | 0.03 | 0.03 | 81 | 1015.6 |
| 20260903004803 | 66 | 267 | 9.0 | 16.0 | 0.00 | 0.03 | 0.03 | 80 | 1015.5 |
| 20260903004203 | 66 | 263 | 9.0 | 14.0 | 0.00 | 0.03 | 0.03 | 80 | 1015.5 |
| 20260903003603 | 66 | 265 | 9.0 | 16.0 | 0.00 | 0.03 | 0.03 | 80 | 1015.6 |
| 20260903003003 | 67 | 265 | 8.0 | 13.0 | 0.00 | 0.03 | 0.03 | 80 | 1015.6 |
| 20260903002403 | 66 | 267 | 9.0 | 13.0 | 0.00 | 0.03 | 0.03 | 81 | 1015.7 |
| 20260903001803 | 66 | 268 | 9.0 | 14.0 | 0.00 | 0.03 | 0.03 | 81 | 1015.7 |
| 20260903001203 | 66 | 266 | 10.0 | 16.0 | 0.00 | 0.03 | 0.03 | 80 | 1015.8 |
| 20260903000603 | 66 | 268 | 10.0 | 16.0 | 0.00 | 0.03 | 0.03 | 80 | 1015.9 |
| 20260903000004 | 66 | 266 | 10.0 | 16.0 | 0.00 | 0.03 | 0.03 | 80 | 1015.8 |
| 20260902235403 | 66 | 266 | 10.0 | 16.0 | 0.00 | 0.03 | 0.03 | 80 | 1015.9 |
| 20260902234803 | 66 | 268 | 11.0 | 16.0 | 0.00 | 0.03 | 0.03 | 80 | 1015.9 |
| 20260902234203 | 66 | 265 | 11.0 | 16.0 | 0.00 | 0.03 | 0.03 | 80 | 1016.0 |
| 20260902233603 | 66 | 267 | 11.0 | 16.0 | 0.00 | 0.03 | 0.03 | 80 | 1016.0 |
| 20260902233003 | 66 | 271 | 11.0 | 16.0 | 0.00 | 0.03 | 0.03 | 80 | 1016.0 |
| 20260902232403 | 66 | 269 | 10.0 | 16.0 | 0.00 | 0.03 | 0.03 | 80 | 1016.0 |
| 20260902231803 | 66 | 269 | 10.0 | 15.0 | 0.00 | 0.03 | 0.03 | 82 | 1016.0 |
| 20260902231203 | 66 | 271 | 10.0 | 15.0 | 0.00 | 0.03 | 0.03 | 81 | 1016.1 |
| 20260902230004 | 66 | 266 | 10.0 | 15.0 | 0.00 | 0.03 | 0.03 | 81 | 1016.1 |
| 20260902225404 | 67 | 265 | 10.0 | 14.0 | 0.00 | 0.03 | 0.03 | 79 | 1016.2 |
| 20260902224804 | 66 | 268 | 10.0 | 16.0 | 0.00 | 0.03 | 0.03 | 80 | 1016.3 |
| 20260902224204 | 67 | 270 | 11.0 | 16.0 | 0.00 | 0.03 | 0.03 | 78 | 1016.2 |
| 20260902223604 | 67 | 268 | 11.0 | 16.0 | 0.00 | 0.03 | 0.03 | 78 | 1016.2 |
| 20260902223003 | 67 | 267 | 11.0 | 16.0 | 0.00 | 0.03 | 0.03 | 79 | 1016.3 |
| 20260902222403 | 67 | 263 | 11.0 | 16.0 | 0.00 | 0.03 | 0.03 | 77 | 1016.3 |
| 20260902221803 | 67 | 265 | 10.0 | 16.0 | 0.00 | 0.03 | 0.03 | 77 | 1016.4 |
| 20260902221203 | 67 | 265 | 10.0 | 15.0 | 0.00 | 0.03 | 0.03 | 77 | 1016.4 |
| 20260902220603 | 68 | 266 | 9.0 | 15.0 | 0.00 | 0.03 | 0.03 | 77 | 1016.4 |
| 20260902220003 | 68 | 267 | 10.0 | 17.0 | 0.00 | 0.03 | 0.03 | 78 | 1016.5 |
| 20260902215404 | 67 | 267 | 10.0 | 17.0 | 0.00 | 0.03 | 0.03 | 78 | 1016.7 |
| 20260902214803 | 67 | 268 | 11.0 | 15.0 | 0.00 | 0.03 | 0.03 | 78 | 1016.7 |
| 20260902214203 | 67 | 269 | 11.0 | 15.0 | 0.00 | 0.03 | 0.03 | 79 | 1016.7 |
| 20260902213603 | 67 | 268 | 10.0 | 15.0 | 0.00 | 0.03 | 0.03 | 81 | 1016.7 |
| 20260902213003 | 67 | 268 | 10.0 | 14.0 | 0.00 | 0.03 | 0.03 | 81 | 1016.8 |
| 20260902212403 | 67 | 268 | 10.0 | 15.0 | 0.00 | 0.03 | 0.03 | 83 | 1016.8 |
| 20260902211803 | 67 | 268 | 10.0 | 15.0 | 0.00 | 0.03 | 0.03 | 82 | 1016.8 |
| 20260902211203 | 67 | 267 | 10.0 | 15.0 | 0.00 | 0.03 | 0.03 | 82 | 1016.8 |
| 20260902210603 | 66 | 267 | 9.0 | 13.0 | 0.00 | 0.03 | 0.03 | 84 | 1016.8 |
| 20260902210003 | 66 | 268 | 9.0 | 14.0 | 0.00 | 0.03 | 0.03 | 86 | 1016.8 |
| 20260902205403 | 66 | 272 | 10.0 | 14.0 | 0.00 | 0.03 | 0.03 | 87 | 1016.8 |
| 20260902204803 | 65 | 269 | 9.0 | 14.0 | 0.00 | 0.03 | 0.03 | 88 | 1016.8 |
| 20260902204204 | 65 | 269 | 10.0 | 15.0 | 0.00 | 0.03 | 0.03 | 89 | 1016.9 |
| 20260902203604 | 64 | 269 | 10.0 | 15.0 | 0.00 | 0.03 | 0.03 | 90 | 1016.9 |
| 20260902203004 | 64 | 269 | 10.0 | 14.0 | 0.00 | 0.03 | 0.03 | 92 | 1017.0 |
| 20260902202404 | 63 | 271 | 10.0 | 14.0 | 0.00 | 0.03 | 0.03 | 91 | 1017.0 |
| 20260902201804 | 63 | 269 | 10.0 | 15.0 | 0.00 | 0.03 | 0.03 | 92 | 1017.1 |
| 20260902201203 | 63 | 271 | 9.0 | 14.0 | 0.00 | 0.03 | 0.03 | 93 | 1017.0 |
| 20260902200604 | 63 | 273 | 9.0 | 13.0 | 0.00 | 0.03 | 0.03 | 94 | 1017.2 |
| 20260902200003 | 63 | 269 | 9.0 | 13.0 | 0.00 | 0.03 | 0.03 | 94 | 1017.2 |
| 20260902195403 | 63 | 267 | 8.0 | 13.0 | 0.00 | 0.03 | 0.03 | 94 | 1017.3 |
| 20260902194803 | 62 | 273 | 7.0 | 13.0 | 0.00 | 0.03 | 0.03 | 95 | 1017.3 |
| 20260902194203 | 62 | 269 | 6.0 | 11.0 | 0.00 | 0.03 | 0.03 | 95 | 1017.3 |
| 20260902193603 | 62 | 269 | 6.0 | 10.0 | 0.00 | 0.03 | 0.03 | 96 | 1017.4 |
| 20260902193003 | 62 | 270 | 7.0 | 10.0 | 0.00 | 0.03 | 0.03 | 96 | 1017.4 |
| 20260902192403 | 62 | 272 | 7.0 | 12.0 | 0.00 | 0.03 | 0.03 | 97 | 1017.4 |
| 20260902191803 | 61 | 270 | 8.0 | 12.0 | 0.00 | 0.03 | 0.03 | 97 | 1017.4 |
| 20260902191203 | 61 | 269 | 9.0 | 14.0 | 0.00 | 0.03 | 0.03 | 97 | 1017.5 |
| 20260902190603 | 61 | 268 | 9.0 | 14.0 | 0.00 | 0.03 | 0.03 | 97 | 1017.4 |
| 20260902190003 | 61 | 265 | 8.0 | 14.0 | 0.00 | 0.03 | 0.03 | 97 | 1017.4 |
| 20260902185403 | 61 | 268 | 8.0 | 12.0 | 0.00 | 0.03 | 0.03 | 97 | 1017.5 |
| 20260902184803 | 61 | 271 | 8.0 | 16.0 | 0.00 | 0.03 | 0.03 | 97 | 1017.3 |
| 20260902184203 | 61 | 269 | 9.0 | 16.0 | 0.00 | 0.03 | 0.03 | 97 | 1017.4 |
| 20260902183604 | 61 | 267 | 9.0 | 14.0 | 0.00 | 0.03 | 0.03 | 98 | 1017.4 |
| 20260902183004 | 61 | 270 | 9.0 | 17.0 | 0.00 | 0.03 | 0.03 | 98 | 1017.4 |
| 20260902182404 | 61 | 269 | 9.0 | 17.0 | 0.00 | 0.03 | 0.03 | 98 | 1017.3 |
| 20260902181804 | 61 | 269 | 9.0 | 13.0 | 0.00 | 0.03 | 0.03 | 98 | 1017.3 |
| 20260902181204 | 61 | 269 | 8.0 | 12.0 | 0.00 | 0.03 | 0.03 | 98 | 1017.2 |
| 20260902180603 | 61 | 269 | 8.0 | 12.0 | 0.00 | 0.03 | 0.03 | 98 | 1017.2 |
| 20260902180006 | 61 | 269 | 8.0 | 11.0 | 0.00 | 0.03 | 0.03 | 98 | 1017.2 |
| 20260902175403 | 61 | 269 | 7.0 | 11.0 | 0.01 | 0.03 | 0.03 | 98 | 1017.1 |
| 20260902174803 | 60 | 269 | 7.0 | 11.0 | 0.01 | 0.03 | 0.03 | 98 | 1017.1 |
| 20260902174204 | 61 | 270 | 6.0 | 11.0 | 0.01 | 0.03 | 0.03 | 98 | 1017.0 |
| 20260902173603 | 60 | 270 | 7.0 | 12.0 | 0.03 | 0.03 | 0.03 | 98 | 1016.8 |
| 20260902173003 | 60 | 270 | 7.0 | 12.0 | 0.03 | 0.03 | 0.03 | 98 | 1016.7 |
| 20260902172403 | 60 | 268 | 7.0 | 13.0 | 0.03 | 0.03 | 0.03 | 98 | 1016.6 |
| 20260902171803 | 60 | 270 | 8.0 | 13.0 | 0.03 | 0.03 | 0.03 | 97 | 1016.6 |
| 20260902171203 | 60 | 270 | 8.0 | 12.0 | 0.03 | 0.03 | 0.03 | 97 | 1016.5 |
| 20260902170603 | 60 | 269 | 8.0 | 14.0 | 0.03 | 0.03 | 0.03 | 97 | 1016.5 |
| 20260902170003 | 60 | 269 | 8.0 | 14.0 | 0.03 | 0.03 | 0.03 | 97 | 1016.5 |
| 20260902165403 | 60 | 269 | 8.0 | 13.0 | 0.01 | 0.01 | 0.01 | 96 | 1016.6 |
| 20260902164803 | 61 | 269 | 8.0 | 13.0 | 0.01 | 0.01 | 0.01 | 96 | 1016.4 |
| 20260902164203 | 61 | 270 | 8.0 | 17.0 | 0.00 | 0.00 | 0.00 | 95 | 1016.3 |
| 20260902163603 | 61 | 272 | 9.0 | 17.0 | 0.00 | 0.00 | 0.00 | 95 | 1016.3 |
| 20260902163003 | 61 | 272 | 9.0 | 14.0 | 0.00 | 0.00 | 0.00 | 94 | 1016.3 |
| 20260902162403 | 61 | 271 | 9.0 | 15.0 | 0.00 | 0.00 | 0.00 | 93 | 1016.2 |
| 20260902161804 | 61 | 269 | 8.0 | 15.0 | 0.00 | 0.00 | 0.00 | 93 | 1016.2 |
| 20260902161204 | 61 | 269 | 8.0 | 14.0 | 0.00 | 0.00 | 0.00 | 93 | 1016.3 |
| 20260902160604 | 61 | 269 | 9.0 | 13.0 | 0.00 | 0.00 | 0.00 | 93 | 1016.3 |
| 20260902160006 | 61 | 269 | 9.0 | 14.0 | 0.00 | 0.00 | 0.00 | 92 | 1016.2 |
| 20260902155404 | 61 | 269 | 8.0 | 14.0 | 0.00 | 0.00 | 0.00 | 92 | 1016.2 |
| 20260902154804 | 61 | 271 | 7.0 | 11.0 | 0.00 | 0.00 | 0.00 | 92 | 1016.1 |
| 20260902154203 | 60 | 271 | 5.0 | 10.0 | 0.00 | 0.00 | 0.00 | 92 | 1016.2 |
| 20260902153603 | 60 | 273 | 5.0 | 7.0 | 0.00 | 0.00 | 0.00 | 93 | 1016.2 |
| 20260902153003 | 60 | 275 | 4.0 | 7.0 | 0.00 | 0.00 | 0.00 | 93 | 1016.3 |
| 20260902152403 | 60 | 273 | 3.0 | 7.0 | 0.00 | 0.00 | 0.00 | 93 | 1016.5 |
| 20260902151803 | 60 | 273 | 3.0 | 7.0 | 0.00 | 0.00 | 0.00 | 93 | 1016.4 |
| 20260902151203 | 60 | 277 | 3.0 | 7.0 | 0.00 | 0.00 | 0.00 | 94 | 1016.3 |
| 20260902150603 | 59 | 274 | 3.0 | 7.0 | 0.00 | 0.00 | 0.00 | 94 | 1016.3 |
| 20260902150003 | 59 | 273 | 3.0 | 6.0 | 0.00 | 0.00 | 0.00 | 95 | 1016.1 |
| 20260902145403 | 59 | 273 | 3.0 | 6.0 | 0.00 | 0.00 | 0.00 | 95 | 1016.0 |
| 20260902144803 | 59 | 271 | 3.0 | 6.0 | 0.00 | 0.00 | 0.00 | 95 | 1016.0 |
| 20260902144203 | 59 | 272 | 3.0 | 6.0 | 0.00 | 0.00 | 0.00 | 94 | 1015.8 |
| 20260902143603 | 59 | 270 | 4.0 | 7.0 | 0.00 | 0.00 | 0.00 | 94 | 1015.7 |
| 20260902143003 | 59 | 270 | 4.0 | 7.0 | 0.00 | 0.00 | 0.00 | 94 | 1015.6 |
| 20260902142403 | 59 | 269 | 5.0 | 7.0 | 0.00 | 0.00 | 0.00 | 94 | 1015.6 |
| 20260902141803 | 59 | 269 | 5.0 | 7.0 | 0.00 | 0.00 | 0.00 | 94 | 1015.5 |
| 20260902141203 | 59 | 269 | 5.0 | 10.0 | 0.00 | 0.00 | 0.00 | 94 | 1015.5 |
| 20260902140604 | 59 | 270 | 5.0 | 10.0 | 0.00 | 0.00 | 0.00 | 93 | 1015.5 |
| 20260902140004 | 59 | 268 | 7.0 | 13.0 | 0.00 | 0.00 | 0.00 | 92 | 1015.6 |
| 20260902135404 | 60 | 270 | 7.0 | 13.0 | 0.00 | 0.00 | 0.00 | 90 | 1015.6 |
| 20260902134804 | 60 | 271 | 6.0 | 10.0 | 0.00 | 0.00 | 0.00 | 88 | 1015.6 |
| 20260902134203 | 60 | 271 | 6.0 | 10.0 | 0.00 | 0.00 | 0.00 | 87 | 1015.5 |
| 20260902133603 | 60 | 273 | 6.0 | 10.0 | 0.00 | 0.00 | 0.00 | 88 | 1015.5 |
| 20260902133004 | 60 | 272 | 5.0 | 9.0 | 0.00 | 0.00 | 0.00 | 90 | 1015.5 |
| 20260902132404 | 60 | 272 | 4.0 | 7.0 | 0.00 | 0.00 | 0.00 | 91 | 1015.4 |
| 20260902131803 | 60 | 271 | 4.0 | 7.0 | 0.00 | 0.00 | 0.00 | 91 | 1015.4 |
| 20260902131203 | 60 | 275 | 3.0 | 7.0 | 0.00 | 0.00 | 0.00 | 91 | 1015.4 |
| 20260902130603 | 60 | 276 | 2.0 | 7.0 | 0.00 | 0.00 | 0.00 | 91 | 1015.4 |
| 20260902130003 | 60 | 270 | 2.0 | 7.0 | 0.00 | 0.00 | 0.00 | 91 | 1015.4 |
| 20260902125403 | 60 | 259 | 1.0 | 3.0 | 0.00 | 0.00 | 0.00 | 91 | 1015.5 |
| 20260902124803 | 60 | 220 | 1.0 | 4.0 | 0.00 | 0.00 | 0.00 | 92 | 1015.5 |
| 20260902124203 | 60 | 223 | 2.0 | 7.0 | 0.00 | 0.00 | 0.00 | 92 | 1015.4 |
| 20260902123603 | 60 | 251 | 2.0 | 7.0 | 0.00 | 0.00 | 0.00 | 92 | 1015.4 |
| 20260902123003 | 60 | 261 | 2.0 | 6.0 | 0.00 | 0.00 | 0.00 | 91 | 1015.4 |
| 20260902122403 | 60 | 269 | 1.0 | 3.0 | 0.00 | 0.00 | 0.00 | 91 | 1015.3 |
| 20260902121803 | 60 | 272 | 2.0 | 4.0 | 0.00 | 0.00 | 0.00 | 91 | 1015.2 |
| 20260902121203 | 60 | 274 | 3.0 | 4.0 | 0.00 | 0.00 | 0.00 | 91 | 1015.2 |
| 20260902120603 | 60 | 277 | 3.0 | 4.0 | 0.00 | 0.00 | 0.00 | 91 | 1015.4 |
| 20260902120003 | 60 | 278 | 3.0 | 4.0 | 0.00 | 0.00 | 0.00 | 91 | 1015.4 |
| 20260902115403 | 60 | 277 | 2.0 | 4.0 | 0.00 | 0.00 | 0.00 | 91 | 1015.4 |
| 20260902114804 | 60 | 278 | 2.0 | 6.0 | 0.00 | 0.00 | 0.00 | 91 | 1015.3 |
| 20260902114204 | 60 | 279 | 3.0 | 6.0 | 0.00 | 0.00 | 0.00 | 91 | 1015.4 |
| 20260902113604 | 60 | 276 | 3.0 | 7.0 | 0.00 | 0.00 | 0.00 | 90 | 1015.2 |
| 20260902113004 | 60 | 273 | 4.0 | 7.0 | 0.00 | 0.00 | 0.00 | 90 | 1015.3 |
| 20260902112404 | 60 | 270 | 5.0 | 9.0 | 0.00 | 0.00 | 0.00 | 91 | 1015.2 |
| 20260902111803 | 60 | 269 | 5.0 | 9.0 | 0.00 | 0.00 | 0.00 | 91 | 1015.2 |
| 20260902111203 | 60 | 272 | 5.0 | 8.0 | 0.00 | 0.00 | 0.00 | 91 | 1015.3 |
| 20260902110604 | 60 | 271 | 5.0 | 8.0 | 0.00 | 0.00 | 0.00 | 92 | 1015.3 |
| 20260902105404 | 60 | 274 | 6.0 | 10.0 | 0.00 | 0.00 | 0.00 | 92 | 1015.3 |
| 20260902104803 | 60 | 271 | 7.0 | 10.0 | 0.00 | 0.00 | 0.00 | 92 | 1015.4 |
| 20260902104203 | 60 | 271 | 7.0 | 11.0 | 0.00 | 0.00 | 0.00 | 92 | 1015.4 |
| 20260902103603 | 60 | 271 | 7.0 | 11.0 | 0.00 | 0.00 | 0.00 | 92 | 1015.4 |
| 20260902103003 | 60 | 270 | 7.0 | 12.0 | 0.00 | 0.00 | 0.00 | 92 | 1015.4 |
| 20260902102403 | 60 | 272 | 7.0 | 12.0 | 0.00 | 0.00 | 0.00 | 92 | 1015.4 |
| 20260902101803 | 60 | 273 | 6.0 | 11.0 | 0.00 | 0.00 | 0.00 | 93 | 1015.3 |
| 20260902101203 | 60 | 272 | 7.0 | 11.0 | 0.00 | 0.00 | 0.00 | 93 | 1015.4 |
| 20260902100603 | 60 | 272 | 6.0 | 12.0 | 0.00 | 0.00 | 0.00 | 93 | 1015.4 |
| 20260902095403 | 60 | 272 | 6.0 | 11.0 | 0.00 | 0.00 | 0.00 | 93 | 1015.3 |
| 20260902094803 | 60 | 272 | 6.0 | 10.0 | 0.00 | 0.00 | 0.00 | 93 | 1015.4 |
| 20260902094203 | 60 | 271 | 6.0 | 10.0 | 0.00 | 0.00 | 0.00 | 93 | 1015.5 |
| 20260902093603 | 60 | 270 | 5.0 | 10.0 | 0.00 | 0.00 | 0.00 | 93 | 1015.4 |
| 20260902093004 | 60 | 273 | 5.0 | 8.0 | 0.00 | 0.00 | 0.00 | 93 | 1015.5 |
| 20260902092404 | 60 | 271 | 5.0 | 9.0 | 0.00 | 0.00 | 0.00 | 93 | 1015.5 |
| 20260902091804 | 60 | 272 | 6.0 | 9.0 | 0.00 | 0.00 | 0.00 | 93 | 1015.5 |
| 20260902091204 | 60 | 273 | 6.0 | 9.0 | 0.00 | 0.00 | 0.00 | 92 | 1015.4 |
| 20260902090604 | 60 | 274 | 6.0 | 10.0 | 0.00 | 0.00 | 0.00 | 93 | 1015.4 |
| 20260902090005 | 60 | 275 | 5.0 | 11.0 | 0.00 | 0.00 | 0.00 | 93 | 1015.5 |
| 20260902085403 | 60 | 272 | 6.0 | 11.0 | 0.00 | 0.00 | 0.00 | 93 | 1015.6 |
| 20260902084804 | 60 | 272 | 6.0 | 10.0 | 0.00 | 0.00 | 0.00 | 93 | 1015.7 |
| 20260902084204 | 60 | 273 | 6.0 | 10.0 | 0.00 | 0.00 | 0.00 | 93 | 1015.7 |
| 20260902083603 | 60 | 270 | 6.0 | 10.0 | 0.00 | 0.00 | 0.00 | 93 | 1015.7 |
| 20260902083003 | 60 | 271 | 7.0 | 9.0 | 0.00 | 0.00 | 0.00 | 93 | 1015.7 |
| 20260902082403 | 60 | 269 | 7.0 | 11.0 | 0.00 | 0.00 | 0.00 | 93 | 1015.7 |
| 20260902081803 | 60 | 271 | 6.0 | 10.0 | 0.00 | 0.00 | 0.00 | 93 | 1015.7 |
| 20260902081203 | 60 | 271 | 6.0 | 9.0 | 0.00 | 0.00 | 0.00 | 93 | 1015.8 |
| 20260902080603 | 60 | 273 | 6.0 | 11.0 | 0.00 | 0.00 | 0.00 | 93 | 1015.8 |
| 20260902080003 | 60 | 272 | 6.0 | 12.0 | 0.00 | 0.00 | 0.00 | 93 | 1015.7 |
| 20260902075403 | 60 | 271 | 6.0 | 12.0 | 0.00 | 0.00 | 0.00 | 93 | 1015.7 |
| 20260902074803 | 60 | 270 | 5.0 | 12.0 | 0.00 | 0.00 | 0.00 | 93 | 1015.8 |
| 20260902074203 | 60 | 271 | 5.0 | 9.0 | 0.00 | 0.00 | 0.00 | 93 | 1015.7 |
| 20260902073605 | 60 | 271 | 5.0 | 9.0 | 0.00 | 0.00 | 0.00 | 93 | 1015.6 |
| 20260902073003 | 60 | 272 | 5.0 | 10.0 | 0.00 | 0.00 | 0.00 | 93 | 1015.7 |
| 20260902072403 | 60 | 272 | 6.0 | 10.0 | 0.00 | 0.00 | 0.00 | 94 | 1015.7 |
| 20260902071803 | 60 | 271 | 6.0 | 10.0 | 0.00 | 0.00 | 0.00 | 94 | 1015.7 |
| 20260902071203 | 60 | 270 | 6.0 | 10.0 | 0.00 | 0.00 | 0.00 | 94 | 1015.6 |
| 20260902070604 | 60 | 269 | 5.0 | 9.0 | 0.00 | 0.00 | 0.00 | 94 | 1015.6 |
| 20260902070006 | 60 | 270 | 5.0 | 9.0 | 0.00 | 0.00 | 0.00 | 94 | 1015.7 |
| 20260902065404 | 60 | 271 | 5.0 | 9.0 | 0.00 | 0.00 | 0.00 | 94 | 1015.8 |
| 20260902064804 | 60 | 271 | 6.0 | 10.0 | 0.00 | 0.00 | 0.00 | 95 | 1015.7 |
| 20260902064204 | 60 | 272 | 5.0 | 10.0 | 0.00 | 0.00 | 0.00 | 95 | 1015.7 |
| 20260902063604 | 59 | 274 | 4.0 | 8.0 | 0.00 | 0.00 | 0.00 | 95 | 1015.7 |
| 20260902063004 | 59 | 273 | 5.0 | 9.0 | 0.00 | 0.00 | 0.00 | 95 | 1015.7 |
| 20260902062403 | 59 | 269 | 5.0 | 9.0 | 0.00 | 0.00 | 0.00 | 95 | 1015.8 |
| 20260902061803 | 59 | 272 | 5.0 | 8.0 | 0.00 | 0.00 | 0.00 | 95 | 1015.8 |
| 20260902061203 | 59 | 269 | 6.0 | 9.0 | 0.00 | 0.00 | 0.00 | 95 | 1015.8 |
| 20260902060603 | 59 | 269 | 6.0 | 10.0 | 0.00 | 0.00 | 0.00 | 95 | 1015.8 |